DECAYED
Showing default

JILIN-01 GAOFEN 3I, 46461 (Decayed)

Orbit data source: Space-Track

JILIN-01 GAOFEN 3I, 46461 was a Chinese payload satellite in LEO that was launched on Tue, 15 Sep 2020 UTC via a CHANG ZHENG 11 launch vehicle from the Yellow Sea Launch Area, China (YSLA). Payload-class satellites include a variety of spacecraft equipped with specific instruments for various scientific and technological missions. These include communications satellites like Starlink; space stations such as the ISS; scientific satellites like the Hubble; Earth observation satellites from companies like Planet Labs, Umbra, and HawkEye 360; GPS; miniature CubeSats for education and research; and military/defense satellites.

Not visible in the next 10 days
Identifier
46461, 2020-065H
Orbit
Decayed
Country
Flag of CNCN / PRC
Related business
None
Manufacturer
Unknown
Mission
Decayed Commercial Imaging
Bus & Motor
Unknown
Mass
Unknown
Launch date (UTC)
2020-09-15 (6 years ago)
Launch vehicle
CHANG ZHENG 11
Launch site
Yellow Sea Launch Area, China (YSLA)
Object type
Payload
Rocket body
Debris
Shape & HBR
Box + 2 Pan, 0.8 m
Radar Cross Section
2.000 m², Medium (>0.1 m² and < 1m²)

Expand to show TLE details & history
Last TLE update: 2 weeks ago

TLE from 2 weeks ago
0 JILIN-01 GAOFEN 3I
1 46461U 20065H   26159.91163512  .05252484  23911-5  84340-3 0  9998
2 46461  97.1970 222.0408 0011591 256.7654 103.2349 16.33531896319051
Epoch: 2026-06-08T21:52Z
TLE epoch observation values (Epoch: 2026-06-08T21:52:45.274Z)
Latitude
-0.0001°
Longitude
-3.43952°
Altitude
188.064 km
Speed
7.792 km/s
True Right ascension
14h 48m 09s
True Declination
0° 00' 00"
Sunlit
Object was in full shadow at epoch
Visualization orbit readout
Latitude
Unknown
Longitude
Unknown
Altitude
Unknown
Speed
Unknown
Apparent Right ascension
Unknown
Apparent Declination
Unknown
Sunlit
N/A
Visualization observer readout
Local Sidereal Time
21:41:03
Azimuth
Unknown
Elevation
Unknown
Doppler factor
Unknown
Orbital elements
Apogee altitude
187.474 km
Perigee altitude
172.271 km
Semi-major axis
6,558.009 km
Eccentricity
0.00116
Inclination
97.197°
RAAN
222.0408°
Arg. of periapsis
256.7654°
True anomaly
103.36415°
Mean anomaly
103.2349°
Eccentric anomaly
103.29953°
Mean motion
4.08682 °/min
Orbital period
88.09 mins
BSTAR
0.0008434
Loading maneuver chart data...
Computing Atmospheric mass density...
Loading historical data...
Loading historical data...
Loading historical data...
Loading historical data...
Loading historical data...
Loading historical data...
Loading historical data...

Documentation

Showing up to 5 results
|